• In Österreich
  • Länderverzeichnis
  • Für 7 Tage
  • Wassertemperatur
  • Satellitenkarten
  • Wetterkarte
  • News
  • Widgets
  • user-avatar
    Anmelden

    Stündliche Wetter Rawson

    Heute, 18 Oktober, Mittwoch

    Zeit Temperatur Niederschläge Wind Luftdruck Luftfeuchtigkeit
    00:00 +16°C° 0 mm 5 m/S 754 mmHg 47%
    01:00 +17°C° 0 mm 4 m/S 754 mmHg 45%
    02:00 +17°C° 0 mm 4 m/S 755 mmHg 44%
    03:00 +15°C° 0 mm 5 m/S 755 mmHg 42%
    04:00 +15°C° 0 mm 5 m/S 755 mmHg 39%
    05:00 +14°C° 0 mm 6 m/S 755 mmHg 37%
    06:00 +14°C° 0 mm 7 m/S 756 mmHg 35%
    07:00 +14°C° 0 mm 7 m/S 757 mmHg 34%
    08:00 +13°C° 0 mm 8 m/S 758 mmHg 32%
    09:00 +15°C° 0 mm 8 m/S 758 mmHg 28%
    10:00 +16°C° 0 mm 9 m/S 758 mmHg 25%
    11:00 +17°C° 0 mm 10 m/S 758 mmHg 21%
    12:00 +17°C° 0 mm 9 m/S 759 mmHg 19%
    13:00 +18°C° 0 mm 8 m/S 759 mmHg 17%
    14:00 +18°C° 0 mm 7 m/S 759 mmHg 15%
    15:00 +18°C° 0 mm 7 m/S 759 mmHg 15%
    16:00 +18°C° 0 mm 7 m/S 759 mmHg 16%
    17:00 +19°C° 0 mm 6 m/S 759 mmHg 16%
    18:00 +17°C° 0 mm 5 m/S 759 mmHg 20%
    19:00 +16°C° 0 mm 5 m/S 759 mmHg 25%
    20:00 +15°C° 0 mm 4 m/S 760 mmHg 29%
    21:00 +14°C° 0 mm 5 m/S 760 mmHg 31%
    22:00 +14°C° 0 mm 5 m/S 760 mmHg 33%
    23:00 +13°C° 0 mm 6 m/S 761 mmHg 35%

    Morgen, 19 Oktober, Donnerstag

    Zeit Temperatur Niederschläge Wind Luftdruck Luftfeuchtigkeit
    00:00 +13°C° 0 mm 6 m/S 761 mmHg 35%
    01:00 +11°C° 0 mm 6 m/S 761 mmHg 35%
    02:00 +11°C° 0 mm 7 m/S 761 mmHg 35%
    03:00 +10°C° 0 mm 7 m/S 761 mmHg 36%
    04:00 +10°C° 0 mm 7 m/S 760 mmHg 37%
    05:00 +9°C° 0 mm 6 m/S 760 mmHg 38%
    06:00 +10°C° 0 mm 7 m/S 760 mmHg 36%
    07:00 +11°C° 0 mm 7 m/S 760 mmHg 34%
    08:00 +12°C° 0 mm 8 m/S 760 mmHg 32%
    09:00 +13°C° 0 mm 8 m/S 760 mmHg 30%
    10:00 +16°C° 0 mm 8 m/S 759 mmHg 27%
    11:00 +17°C° 0 mm 8 m/S 759 mmHg 24%
    12:00 +17°C° 0 mm 8 m/S 759 mmHg 24%
    13:00 +17°C° 0 mm 8 m/S 758 mmHg 23%
    14:00 +17°C° 0 mm 7 m/S 757 mmHg 22%
    15:00 +17°C° 0 mm 7 m/S 757 mmHg 22%
    16:00 +17°C° 0 mm 7 m/S 757 mmHg 22%
    17:00 +17°C° 0 mm 6 m/S 756 mmHg 22%
    18:00 +17°C° 0 mm 5 m/S 756 mmHg 23%
    19:00 +17°C° 0 mm 4 m/S 757 mmHg 24%
    20:00 +17°C° 0 mm 3 m/S 757 mmHg 26%
    21:00 +16°C° 0 mm 3 m/S 757 mmHg 28%
    22:00 +16°C° 0 mm 3 m/S 757 mmHg 30%
    23:00 +14°C° 0 mm 3 m/S 757 mmHg 31%

    übermorgen, 20 Oktober, Freitag

    Zeit Temperatur Niederschläge Wind Luftdruck Luftfeuchtigkeit
    00:00 +14°C° 0,1 mm 4 m/S 757 mmHg 34%
    01:00 +13°C° 0,1 mm 5 m/S 757 mmHg 36%
    02:00 +13°C° 0,1 mm 6 m/S 757 mmHg 38%
    03:00 +11°C° 0 mm 6 m/S 757 mmHg 38%
    04:00 +10°C° 0 mm 7 m/S 757 mmHg 38%
    05:00 +10°C° 0 mm 7 m/S 758 mmHg 38%
    06:00 +10°C° 0 mm 7 m/S 758 mmHg 37%
    07:00 +11°C° 0 mm 7 m/S 759 mmHg 36%
    08:00 +11°C° 0 mm 7 m/S 759 mmHg 36%
    09:00 +12°C° 0 mm 7 m/S 759 mmHg 32%
    10:00 +14°C° 0 mm 6 m/S 759 mmHg 29%
    11:00 +15°C° 0 mm 6 m/S 759 mmHg 25%
    12:00 +16°C° 0 mm 6 m/S 759 mmHg 25%
    13:00 +16°C° 0 mm 6 m/S 759 mmHg 25%
    14:00 +17°C° 0 mm 6 m/S 759 mmHg 25%
    15:00 +16°C° 0 mm 6 m/S 759 mmHg 27%
    16:00 +16°C° 0 mm 5 m/S 759 mmHg 30%
    17:00 +15°C° 0 mm 4 m/S 759 mmHg 33%
    18:00 +14°C° 0,3 mm 4 m/S 760 mmHg 38%
    19:00 +13°C° 0,3 mm 3 m/S 761 mmHg 43%
    20:00 +13°C° 0,3 mm 2 m/S 762 mmHg 48%
    21:00 +13°C° 0,3 mm 2 m/S 762 mmHg 51%
    22:00 +13°C° 0,3 mm 2 m/S 762 mmHg 53%
    23:00 +12°C° 0,3 mm 2 m/S 763 mmHg 56%

    21 Oktober, Samstag

    Zeit Temperatur Niederschläge Wind Luftdruck Luftfeuchtigkeit
    00:00 +12°C° 0,4 mm 2 m/S 763 mmHg 57%
    01:00 +12°C° 0,4 mm 2 m/S 763 mmHg 59%
    02:00 +12°C° 0,4 mm 2 m/S 763 mmHg 60%
    03:00 +10°C° 0 mm 2 m/S 764 mmHg 59%
    04:00 +10°C° 0 mm 2 m/S 764 mmHg 58%
    05:00 +10°C° 0 mm 2 m/S 765 mmHg 58%
    06:00 +12°C° 0 mm 2 m/S 765 mmHg 54%
    07:00 +12°C° 0 mm 3 m/S 766 mmHg 50%
    08:00 +13°C° 0 mm 4 m/S 766 mmHg 46%
    09:00 +13°C° 0 mm 4 m/S 767 mmHg 44%
    10:00 +14°C° 0 mm 3 m/S 767 mmHg 41%
    11:00 +16°C° 0 mm 3 m/S 767 mmHg 38%
    12:00 +17°C° 0 mm 4 m/S 767 mmHg 36%
    13:00 +17°C° 0 mm 4 m/S 767 mmHg 34%
    14:00 +18°C° 0 mm 4 m/S 767 mmHg 32%
    15:00 +17°C° 0 mm 5 m/S 767 mmHg 31%
    16:00 +17°C° 0 mm 5 m/S 766 mmHg 31%
    17:00 +17°C° 0 mm 6 m/S 766 mmHg 30%
    18:00 +16°C° 0 mm 7 m/S 766 mmHg 34%
    19:00 +16°C° 0 mm 7 m/S 766 mmHg 38%
    20:00 +15°C° 0 mm 8 m/S 766 mmHg 42%
    21:00 +13°C° 0 mm 8 m/S 766 mmHg 47%
    22:00 +12°C° 0 mm 9 m/S 766 mmHg 52%
    23:00 +11°C° 0 mm 9 m/S 766 mmHg 57%

    22 Oktober, Sonntag

    Zeit Temperatur Niederschläge Wind Luftdruck Luftfeuchtigkeit
    00:00 +11°C° 0 mm 10 m/S 765 mmHg 56%
    01:00 +11°C° 0 mm 10 m/S 765 mmHg 55%
    02:00 +11°C° 0 mm 10 m/S 764 mmHg 54%
    03:00 +11°C° 0 mm 10 m/S 763 mmHg 50%
    04:00 +11°C° 0 mm 10 m/S 763 mmHg 47%
    05:00 +11°C° 0 mm 10 m/S 762 mmHg 44%
    06:00 +13°C° 0 mm 10 m/S 762 mmHg 37%
    07:00 +16°C° 0 mm 10 m/S 761 mmHg 30%
    08:00 +17°C° 0 mm 9 m/S 761 mmHg 23%
    09:00 +21°C° 0 mm 9 m/S 760 mmHg 20%
    10:00 +23°C° 0 mm 9 m/S 759 mmHg 17%
    11:00 +26°C° 0 mm 9 m/S 759 mmHg 14%
    12:00 +27°C° 0 mm 9 m/S 758 mmHg 13%
    13:00 +28°C° 0 mm 10 m/S 757 mmHg 12%
    14:00 +29°C° 0 mm 10 m/S 756 mmHg 11%
    15:00 +29°C° 0 mm 11 m/S 755 mmHg 11%
    16:00 +29°C° 0 mm 11 m/S 754 mmHg 11%
    17:00 +29°C° 0 mm 11 m/S 753 mmHg 11%
    18:00 +28°C° 0 mm 11 m/S 753 mmHg 12%
    19:00 +27°C° 0 mm 11 m/S 753 mmHg 14%
    20:00 +26°C° 0 mm 10 m/S 753 mmHg 15%
    21:00 +24°C° 0 mm 10 m/S 753 mmHg 17%
    22:00 +23°C° 0 mm 9 m/S 753 mmHg 19%
    23:00 +22°C° 0 mm 9 m/S 753 mmHg 21%

    23 Oktober, Montag

    Zeit Temperatur Niederschläge Wind Luftdruck Luftfeuchtigkeit
    00:00 +22°C° 0 mm 8 m/S 753 mmHg 25%
    01:00 +21°C° 0 mm 6 m/S 753 mmHg 28%
    02:00 +20°C° 0 mm 5 m/S 753 mmHg 32%
    03:00 +19°C° 0 mm 5 m/S 753 mmHg 34%
    04:00 +19°C° 0 mm 4 m/S 753 mmHg 37%
    05:00 +18°C° 0 mm 4 m/S 754 mmHg 40%
    06:00 +19°C° 0 mm 3 m/S 754 mmHg 37%
    07:00 +20°C° 0 mm 3 m/S 754 mmHg 34%
    08:00 +21°C° 0 mm 3 m/S 754 mmHg 31%
    09:00 +22°C° 0 mm 3 m/S 754 mmHg 29%
    10:00 +24°C° 0 mm 3 m/S 754 mmHg 27%
    11:00 +25°C° 0 mm 3 m/S 753 mmHg 25%
    12:00 +26°C° 0 mm 4 m/S 753 mmHg 23%
    13:00 +27°C° 0 mm 5 m/S 752 mmHg 22%
    14:00 +28°C° 0 mm 6 m/S 752 mmHg 20%
    15:00 +28°C° 0 mm 6 m/S 751 mmHg 22%
    16:00 +28°C° 0 mm 6 m/S 751 mmHg 24%
    17:00 +27°C° 0 mm 6 m/S 750 mmHg 26%
    18:00 +26°C° 0 mm 6 m/S 750 mmHg 26%
    19:00 +26°C° 0 mm 5 m/S 750 mmHg 27%
    20:00 +25°C° 0 mm 5 m/S 750 mmHg 27%
    21:00 +23°C° 0 mm 6 m/S 751 mmHg 26%
    22:00 +22°C° 0 mm 7 m/S 751 mmHg 26%
    23:00 +21°C° 0 mm 8 m/S 751 mmHg 25%
    Mehr zeigen